| time (UTC) | temp C | wind direction | speed KPH | gust KPH | rain 1hr cm | rain 24hr cm | rain mn cm | humidity % | barometer mb |
| 20260503184903 | 18 | 226 | 4.8 | 8.0 | 0.00 | 0.00 | 0.00 | 36 | 1019.3 |
| 20260503184403 | 18 | 252 | 3.2 | 12.9 | 0.00 | 0.00 | 0.00 | 38 | 1019.4 |
| 20260503183904 | 18 | 183 | 3.2 | 4.8 | 0.00 | 0.00 | 0.00 | 37 | 1019.4 |
| 20260503183403 | 18 | 250 | 3.2 | 9.7 | 0.00 | 0.00 | 0.00 | 37 | 1019.4 |
| 20260503182903 | 18 | 149 | 3.2 | 8.0 | 0.00 | 0.00 | 0.00 | 36 | 1019.5 |
| 20260503182405 | 18 | 267 | 1.6 | 4.8 | 0.00 | 0.00 | 0.00 | 36 | 1019.5 |
| 20260503181403 | 18 | 50 | 3.2 | 8.0 | 0.00 | 0.00 | 0.00 | 44 | 1019.7 |
| 20260503180905 | 17 | 138 | 8.0 | 14.5 | 0.00 | 0.00 | 0.00 | 37 | 1019.7 |
| 20260503180404 | 18 | 185 | 8.0 | 11.3 | 0.00 | 0.00 | 0.00 | 37 | 1019.7 |
| 20260503175404 | 18 | 131 | 4.8 | 9.7 | 0.00 | 0.00 | 0.00 | 38 | 1020.1 |
| 20260503174903 | 18 | 246 | 3.2 | 11.3 | 0.00 | 0.00 | 0.00 | 39 | 1020.1 |
| 20260503174403 | 17 | 229 | 3.2 | 11.3 | 0.00 | 0.00 | 0.00 | 37 | 1020.1 |
| 20260503173904 | 18 | 50 | 4.8 | 9.7 | 0.00 | 0.00 | 0.00 | 40 | 1020.1 |
| 20260503173404 | 18 | 17 | 3.2 | 4.8 | 0.00 | 0.00 | 0.00 | 41 | 1020.1 |
| 20260503172404 | 17 | 225 | 1.6 | 4.8 | 0.00 | 0.00 | 0.00 | 42 | 1020.4 |
| 20260503171903 | 17 | 101 | 3.2 | 8.0 | 0.00 | 0.00 | 0.00 | 40 | 1020.4 |
| 20260503171404 | 17 | 225 | 4.8 | 11.3 | 0.00 | 0.00 | 0.00 | 40 | 1020.4 |
| 20260503170905 | 17 | 247 | 3.2 | 4.8 | 0.00 | 0.00 | 0.00 | 40 | 1020.4 |
| 20260503170403 | 17 | 54 | 3.2 | 8.0 | 0.00 | 0.00 | 0.00 | 44 | 1020.4 |
| 20260503150905 | 15 | 66 | 4.8 | 4.8 | 0.00 | 0.00 | 0.00 | 49 | 1021.2 |
| 20260503150403 | 15 | 35 | 4.8 | 9.7 | 0.00 | 0.00 | 0.00 | 48 | 1021.2 |
| 20260503131403 | 11 | 49 | 1.6 | 4.8 | 0.00 | 0.00 | 0.00 | 68 | 1020.8 |
| 20260503130905 | 11 | 58 | 1.6 | 4.8 | 0.00 | 0.00 | 0.00 | 70 | 1020.8 |
| 20260503130404 | 10 | 47 | 0.0 | 4.8 | 0.00 | 0.00 | 0.00 | 72 | 1020.8 |
| 20260503110404 | 5 | 181 | 0.0 | 0.0 | 0.00 | 0.00 | 0.00 | 83 | 1019.9 |
| 20260503081405 | 6 | 102 | 0.0 | 1.6 | 0.00 | 0.00 | 0.00 | 80 | 1018.3 |
| 20260503080404 | 6 | 102 | 0.0 | 0.0 | 0.00 | 0.00 | 0.00 | 79 | 1018.3 |
| 20260503072905 | 7 | 102 | 0.0 | 0.0 | 0.00 | 0.00 | 0.00 | 77 | 1018.2 |
| 20260503071905 | 7 | 102 | 0.0 | 0.0 | 0.00 | 0.00 | 0.00 | 77 | 1018.0 |
| 20260503071405 | 7 | 102 | 0.0 | 0.0 | 0.00 | 0.00 | 0.00 | 77 | 1018.0 |
| 20260503070904 | 7 | 102 | 0.0 | 0.0 | 0.00 | 0.00 | 0.00 | 76 | 1018.0 |
| 20260503070404 | 7 | 102 | 0.0 | 0.0 | 0.00 | 0.00 | 0.00 | 75 | 1018.0 |
| 20260503054904 | 8 | 154 | 0.0 | 1.6 | 0.00 | 0.00 | 0.00 | 71 | 1017.7 |
| 20260503054405 | 8 | 154 | 0.0 | 0.0 | 0.00 | 0.00 | 0.00 | 71 | 1017.8 |
| 20260503053904 | 8 | 154 | 0.0 | 1.6 | 0.00 | 0.00 | 0.00 | 70 | 1017.8 |
| 20260503053404 | 8 | 154 | 0.0 | 1.6 | 0.00 | 0.00 | 0.00 | 70 | 1017.8 |
| 20260503052905 | 8 | 154 | 0.0 | 1.6 | 0.00 | 0.00 | 0.00 | 70 | 1017.8 |
| 20260503052404 | 8 | 154 | 0.0 | 1.6 | 0.00 | 0.00 | 0.00 | 69 | 1017.7 |
| 20260503051904 | 9 | 154 | 0.0 | 1.6 | 0.00 | 0.00 | 0.00 | 69 | 1017.6 |
| 20260503051405 | 9 | 154 | 0.0 | 1.6 | 0.00 | 0.00 | 0.00 | 68 | 1017.6 |
| 20260503050904 | 9 | 154 | 0.0 | 1.6 | 0.00 | 0.00 | 0.00 | 67 | 1017.6 |
| 20260503045905 | 10 | 154 | 0.0 | 0.0 | 0.00 | 0.00 | 0.00 | 66 | 1017.5 |
| 20260503045404 | 10 | 154 | 0.0 | 0.0 | 0.00 | 0.00 | 0.00 | 66 | 1017.5 |
| 20260503044403 | 10 | 154 | 0.0 | 0.0 | 0.00 | 0.00 | 0.00 | 65 | 1017.5 |
| 20260503043903 | 10 | 154 | 0.0 | 0.0 | 0.00 | 0.00 | 0.00 | 63 | 1017.5 |
| 20260503043403 | 10 | 154 | 0.0 | 0.0 | 0.00 | 0.00 | 0.00 | 62 | 1017.5 |
| 20260503042903 | 11 | 154 | 0.0 | 0.0 | 0.00 | 0.00 | 0.00 | 61 | 1017.3 |
| 20260503042402 | 11 | 154 | 0.0 | 0.0 | 0.00 | 0.00 | 0.00 | 60 | 1017.3 |
| 20260503041404 | 11 | 154 | 0.0 | 3.2 | 0.00 | 0.00 | 0.00 | 59 | 1017.3 |
| 20260503035904 | 11 | 246 | 1.6 | 4.8 | 0.00 | 0.00 | 0.00 | 57 | 1017.3 |
| 20260503035403 | 11 | 241 | 1.6 | 4.8 | 0.00 | 0.00 | 0.00 | 57 | 1017.3 |
| 20260503034903 | 11 | 128 | 1.6 | 4.8 | 0.00 | 0.00 | 0.00 | 57 | 1017.3 |
| 20260503034404 | 11 | 246 | 1.6 | 4.8 | 0.00 | 0.00 | 0.00 | 56 | 1017.3 |
| 20260503033902 | 12 | 227 | 1.6 | 3.2 | 0.00 | 0.00 | 0.00 | 56 | 1017.3 |
| 20260503033403 | 12 | 255 | 1.6 | 4.8 | 0.00 | 0.00 | 0.00 | 54 | 1017.3 |
| 20260503032903 | 12 | 242 | 0.0 | 4.8 | 0.00 | 0.00 | 0.00 | 54 | 1017.0 |
| 20260503032402 | 12 | 253 | 1.6 | 4.8 | 0.00 | 0.00 | 0.00 | 54 | 1017.0 |
| 20260503031903 | 12 | 279 | 1.6 | 4.8 | 0.00 | 0.00 | 0.00 | 53 | 1017.0 |
| 20260503031404 | 12 | 342 | 3.2 | 4.8 | 0.00 | 0.00 | 0.00 | 51 | 1017.1 |
| 20260503030903 | 12 | 45 | 1.6 | 4.8 | 0.00 | 0.00 | 0.00 | 52 | 1017.1 |
| 20260503030402 | 12 | 31 | 3.2 | 8.0 | 0.00 | 0.00 | 0.00 | 51 | 1017.1 |
| 20260503025904 | 12 | 17 | 1.6 | 3.2 | 0.00 | 0.00 | 0.00 | 53 | 1016.8 |
| 20260503025406 | 13 | 17 | 1.6 | 3.2 | 0.00 | 0.00 | 0.00 | 51 | 1016.8 |
| 20260503024903 | 13 | 342 | 1.6 | 4.8 | 0.00 | 0.00 | 0.00 | 51 | 1016.8 |
| 20260503024404 | 13 | 32 | 1.6 | 4.8 | 0.00 | 0.00 | 0.00 | 51 | 1016.8 |
| 20260503023903 | 12 | 24 | 1.6 | 8.0 | 0.00 | 0.00 | 0.00 | 49 | 1016.6 |
| 20260503023403 | 12 | 331 | 1.6 | 4.8 | 0.00 | 0.00 | 0.00 | 51 | 1016.6 |
| 20260503022903 | 12 | 19 | 1.6 | 3.2 | 0.00 | 0.00 | 0.00 | 52 | 1016.3 |
| 20260503022403 | 13 | 335 | 1.6 | 3.2 | 0.00 | 0.00 | 0.00 | 49 | 1016.3 |
| 20260503021902 | 13 | 324 | 0.0 | 3.2 | 0.00 | 0.00 | 0.00 | 51 | 1016.3 |
| 20260503020903 | 13 | 314 | 1.6 | 3.2 | 0.00 | 0.00 | 0.00 | 52 | 1016.1 |
| 20260503020403 | 13 | 350 | 1.6 | 3.2 | 0.00 | 0.00 | 0.00 | 50 | 1016.1 |
| 20260503015403 | 13 | 278 | 1.6 | 4.8 | 0.00 | 0.00 | 0.00 | 49 | 1015.6 |
| 20260503014902 | 13 | 286 | 1.6 | 4.8 | 0.00 | 0.00 | 0.00 | 50 | 1015.6 |
| 20260503014403 | 13 | 337 | 1.6 | 3.2 | 0.00 | 0.00 | 0.00 | 54 | 1015.6 |
| 20260503013402 | 13 | 312 | 1.6 | 3.2 | 0.00 | 0.00 | 0.00 | 54 | 1015.6 |
| 20260503012403 | 13 | 324 | 1.6 | 3.2 | 0.00 | 0.00 | 0.00 | 53 | 1015.3 |
| 20260503011903 | 13 | 317 | 0.0 | 1.6 | 0.00 | 0.00 | 0.00 | 54 | 1015.3 |
| 20260503011404 | 13 | 323 | 1.6 | 3.2 | 0.00 | 0.00 | 0.00 | 54 | 1015.2 |
| 20260503004903 | 12 | 279 | 0.0 | 0.0 | 0.00 | 0.00 | 0.00 | 54 | 1014.8 |
| 20260503003903 | 12 | 279 | 0.0 | 0.0 | 0.00 | 0.00 | 0.00 | 55 | 1014.6 |
| 20260503003403 | 13 | 279 | 0.0 | 0.0 | 0.00 | 0.00 | 0.00 | 55 | 1014.6 |
| 20260503002904 | 13 | 279 | 0.0 | 0.0 | 0.00 | 0.00 | 0.00 | 55 | 1014.6 |
| 20260503002403 | 13 | 279 | 0.0 | 0.0 | 0.00 | 0.00 | 0.00 | 56 | 1014.6 |
| 20260503001903 | 13 | 279 | 0.0 | 0.0 | 0.00 | 0.00 | 0.00 | 54 | 1014.6 |
| 20260503001404 | 13 | 279 | 0.0 | 0.0 | 0.00 | 0.00 | 0.00 | 54 | 1014.4 |
| 20260503000902 | 13 | 279 | 0.0 | 0.0 | 0.00 | 0.00 | 0.00 | 54 | 1014.0 |
| 20260503000402 | 13 | 279 | 0.0 | 0.0 | 0.00 | 0.00 | 0.00 | 55 | 1014.0 |
| 20260502235904 | 13 | 279 | 0.0 | 0.0 | 0.00 | 0.00 | 0.00 | 54 | 1014.0 |
| 20260502235403 | 13 | 279 | 0.0 | 0.0 | 0.00 | 0.00 | 0.00 | 52 | 1013.9 |
| 20260502234903 | 13 | 279 | 0.0 | 0.0 | 0.00 | 0.00 | 0.00 | 52 | 1013.9 |
| 20260502234404 | 13 | 279 | 0.0 | 0.0 | 0.00 | 0.00 | 0.00 | 52 | 1013.9 |
| 20260502233903 | 14 | 279 | 0.0 | 0.0 | 0.00 | 0.00 | 0.00 | 51 | 1013.9 |
| 20260502233403 | 15 | 279 | 1.6 | 3.2 | 0.00 | 0.00 | 0.00 | 51 | 1013.9 |
| 20260502232403 | 15 | 313 | 1.6 | 4.8 | 0.00 | 0.00 | 0.00 | 48 | 1013.9 |
| 20260502231903 | 15 | 286 | 1.6 | 3.2 | 0.00 | 0.00 | 0.00 | 48 | 1013.9 |
| 20260502231404 | 16 | 325 | 0.0 | 0.0 | 0.00 | 0.00 | 0.00 | 47 | 1013.9 |
| 20260502230902 | 16 | 16 | 0.0 | 0.0 | 0.00 | 0.00 | 0.00 | 45 | 1013.9 |
| 20260502230404 | 16 | 355 | 1.6 | 1.6 | 0.00 | 0.00 | 0.00 | 48 | 1013.8 |
| 20260502225902 | 17 | 355 | 1.6 | 1.6 | 0.00 | 0.00 | 0.00 | 40 | 1014.0 |
| 20260502225403 | 17 | 355 | 1.6 | 3.2 | 0.00 | 0.00 | 0.00 | 35 | 1014.0 |
| 20260502224904 | 17 | 5 | 1.6 | 3.2 | 0.00 | 0.00 | 0.00 | 36 | 1014.0 |
| 20260502224403 | 17 | 5 | 1.6 | 3.2 | 0.00 | 0.00 | 0.00 | 35 | 1013.9 |
| 20260502223903 | 17 | 5 | 1.6 | 3.2 | 0.00 | 0.00 | 0.00 | 32 | 1013.9 |
| 20260502223404 | 17 | 18 | 1.6 | 4.8 | 0.00 | 0.00 | 0.00 | 32 | 1013.9 |
| 20260502221904 | 18 | 33 | 3.2 | 4.8 | 0.00 | 0.00 | 0.00 | 32 | 1013.8 |
| 20260502221403 | 18 | 39 | 3.2 | 4.8 | 0.00 | 0.00 | 0.00 | 32 | 1013.6 |
| 20260502220903 | 18 | 27 | 1.6 | 4.8 | 0.00 | 0.00 | 0.00 | 30 | 1013.6 |
| 20260502220404 | 18 | 5 | 1.6 | 8.0 | 0.00 | 0.00 | 0.00 | 29 | 1013.6 |
| 20260502215902 | 18 | 1 | 4.8 | 11.3 | 0.00 | 0.00 | 0.00 | 28 | 1013.4 |
| 20260502215403 | 18 | 23 | 1.6 | 8.0 | 0.00 | 0.00 | 0.00 | 31 | 1013.4 |
| 20260502214904 | 18 | 1 | 3.2 | 12.9 | 0.00 | 0.00 | 0.00 | 33 | 1013.4 |
| 20260502214403 | 18 | 17 | 3.2 | 8.0 | 0.00 | 0.00 | 0.00 | 30 | 1013.4 |
| 20260502213902 | 18 | 26 | 3.2 | 8.0 | 0.00 | 0.00 | 0.00 | 32 | 1013.4 |
| 20260502213405 | 18 | 61 | 1.6 | 4.8 | 0.00 | 0.00 | 0.00 | 32 | 1013.4 |
| 20260502212902 | 18 | 60 | 1.6 | 4.8 | 0.00 | 0.00 | 0.00 | 32 | 1013.3 |
| 20260502212403 | 18 | 32 | 1.6 | 3.2 | 0.00 | 0.00 | 0.00 | 34 | 1013.3 |
| 20260502211904 | 18 | 31 | 3.2 | 4.8 | 0.00 | 0.00 | 0.00 | 33 | 1013.3 |
| 20260502211403 | 18 | 30 | 3.2 | 8.0 | 0.00 | 0.00 | 0.00 | 33 | 1013.2 |
| 20260502210903 | 18 | 58 | 3.2 | 4.8 | 0.00 | 0.00 | 0.00 | 33 | 1013.2 |
| 20260502205903 | 18 | 31 | 3.2 | 8.0 | 0.00 | 0.00 | 0.00 | 30 | 1013.3 |
| 20260502205403 | 19 | 35 | 3.2 | 8.0 | 0.00 | 0.00 | 0.00 | 29 | 1013.3 |
| 20260502204904 | 19 | 39 | 4.8 | 9.7 | 0.00 | 0.00 | 0.00 | 32 | 1013.3 |
| 20260502204402 | 19 | 31 | 3.2 | 4.8 | 0.00 | 0.00 | 0.00 | 35 | 1013.2 |
| 20260502203903 | 18 | 6 | 1.6 | 4.8 | 0.00 | 0.00 | 0.00 | 32 | 1013.2 |
| 20260502203404 | 18 | 34 | 1.6 | 8.0 | 0.00 | 0.00 | 0.00 | 31 | 1013.3 |
| 20260502202903 | 19 | 25 | 3.2 | 9.7 | 0.00 | 0.00 | 0.00 | 31 | 1013.5 |
| 20260502202403 | 19 | 30 | 4.8 | 11.3 | 0.00 | 0.00 | 0.00 | 30 | 1013.5 |
| 20260502201904 | 19 | 20 | 4.8 | 9.7 | 0.00 | 0.00 | 0.00 | 29 | 1013.5 |
| 20260502201403 | 19 | 50 | 4.8 | 8.0 | 0.00 | 0.00 | 0.00 | 32 | 1013.4 |
| 20260502200404 | 19 | 31 | 4.8 | 9.7 | 0.00 | 0.00 | 0.00 | 31 | 1013.4 |
| 20260502195903 | 19 | 342 | 4.8 | 8.0 | 0.00 | 0.00 | 0.00 | 31 | 1013.8 |
| 20260502194905 | 19 | 32 | 3.2 | 4.8 | 0.00 | 0.00 | 0.00 | 35 | 1013.8 |
| 20260502194404 | 18 | 40 | 6.4 | 12.9 | 0.00 | 0.00 | 0.00 | 30 | 1013.8 |
| 20260502193903 | 18 | 14 | 3.2 | 9.7 | 0.00 | 0.00 | 0.00 | 35 | 1013.8 |
| 20260502193404 | 19 | 51 | 4.8 | 8.0 | 0.00 | 0.00 | 0.00 | 36 | 1013.8 |
| 20260502192903 | 19 | 15 | 3.2 | 4.8 | 0.00 | 0.00 | 0.00 | 36 | 1013.9 |
| 20260502192403 | 18 | 28 | 3.2 | 4.8 | 0.00 | 0.00 | 0.00 | 36 | 1013.9 |
| 20260502191904 | 19 | 29 | 3.2 | 9.7 | 0.00 | 0.00 | 0.00 | 33 | 1013.8 |
| 20260502190903 | 19 | 26 | 4.8 | 11.3 | 0.00 | 0.00 | 0.00 | 35 | 1013.8 |
| 20260502190405 | 18 | 26 | 3.2 | 4.8 | 0.00 | 0.00 | 0.00 | 33 | 1013.8 |
| 20260502185903 | 18 | 296 | 3.2 | 8.0 | 0.00 | 0.00 | 0.00 | 33 | 1014.1 |